Vertical_Velocity
13 1 -11 9 20 -11 -7 15 -4 -6 5 7 -3 4 3 3 -3 2 4 -4 3 5
2 -1 5 3 -3 -2 -5 5 6 11 6 -4 6 -1 -3 4 -1 -2 -3 -3 -1 -1
7 4 4 -6 6 5 -1 -4 -3 -7 -11 14 2 5 -1 7 9 -5 6 1 1 2
-3 -2 8 0 -1 1 2 1 -2 3 8 0 4 -12 8 0 3 3 6 3 0 3
4 -1 -3 -0 0 1 0 1 4 4 2 0 -0 6 0 6 -2 4 3 4 1 4
-1 1 3 4 3 3 4 3 3 4 3 3 4 4 -2 3 2 1 -3 4 -1 -2
1 1 -1 0 2 3 3 3 2 2 3 3 2 -0 -1 -2 -1 3 1 0 2 3
3 3 3 2 3 4 4 4 3 2 1 1 1 1 -0 0 -0 -2 1 1 1 0
2 2 2 1 -0 -1 -0 -3 -2 -1 -1 0 2 2 2 0 -0 -1 -2 -3 -2 -1
4 1 -1 -3 -2 0 2 -1 5 4 1 -1 3 4 5 2 0 0 1 1 -1 -2
-1 -0 -2 -2 -2 -1 1 -3 4 4 1 -2 0 2 4 0 2 1 -0 -0 -1 -1
-1 2 3 2 -1 -1 -1 2 2 -1 -1 -2 -2 0 0 2 -0 0 1 0 -1 -1
1 2 3 2 -1 -3 1 1 3 -1 -0 -1 -2 1 1 2 1 1 -4 2 3 1
-1 3 1 1 1 -0 -0 -1 -1 -0 0 -0 3 1 -1 -2 -1 -6 -4 -4 1 5
Height
2993 2998 3000 3006 3008 3015 3019 3021 3027 3031 3035 3038 3044 3048 3051 3055 3060 3063 3066 3070 3073 3075
2986 2988 2993 2997 3001 3006 3010 3014 3019 3022 3027 3031 3035 3038 3043 3047 3051 3056 3058 3061 3064 3067
2976 2981 2984 2989 2993 2996 3000 3006 3011 3016 3021 3024 3026 3031 3033 3038 3043 3048 3050 3053 3056 3058
2968 2975 2976 2980 2984 2987 2991 2996 3001 3006 3009 3015 3018 3024 3025 3030 3034 3038 3041 3044 3047 3049
2961 2965 2969 2972 2974 2976 2979 2983 2989 2995 3001 3006 3010 3014 3018 3022 3027 3030 3032 3036 3039 3041
2954 2957 2961 2965 2967 2969 2972 2976 2981 2986 2992 2997 3001 3005 3010 3014 3017 3021 3025 3025 3028 3031
2949 2952 2956 2959 2962 2966 2969 2972 2976 2981 2985 2990 2994 2998 3002 3006 3010 3013 3015 3017 3019 3022
2943 2946 2950 2953 2957 2960 2964 2968 2972 2975 2979 2983 2987 2991 2994 2997 3001 3003 3006 3009 3011 3013
2939 2941 2944 2948 2951 2955 2958 2962 2967 2971 2974 2978 2981 2985 2988 2991 2993 2996 2998 3001 3003 3005
2935 2938 2941 2944 2947 2952 2955 2958 2961 2965 2968 2971 2975 2978 2981 2984 2986 2988 2991 2993 2995 2997
2931 2934 2937 2941 2944 2947 2950 2953 2955 2958 2961 2965 2968 2970 2973 2975 2978 2981 2984 2985 2987 2989
2929 2931 2934 2936 2938 2941 2945 2949 2952 2954 2956 2959 2962 2964 2966 2969 2971 2974 2976 2978 2979 2981
2925 2929 2932 2933 2935 2937 2940 2943 2945 2948 2951 2954 2957 2959 2959 2962 2963 2966 2969 2971 2972 2974
2921 2923 2926 2929 2932 2934 2936 2939 2941 2943 2945 2947 2950 2953 2955 2957 2959 2960 2963 2965 2966 2967